Weather Roundup
Issued by NWS Chicago, IL

Home | Current Version | Previous Version | Graphics & Text | Print | Product List | Glossary On
Versions: 1 2 3 4 5 6 7 8 9 10 11 12 13 14 15 16 17 18 19 20 21 22 23 24 25 26 27 28 29 30 31 32 33 34 35 36 37 38 39 40 41 42 43 44 45 46 47 48 49 50
000
NZUS59 KLOT 180808
HRRLOT

CHICAGO AREA WEATHER ROUNDUP
NATIONAL WEATHER SERVICE CHICAGO/ROMEOVILLE IL
300 AM CDT FRI AUG 18 2017

NOTE: "FAIR" INDICATES FEW OR NO CLOUDS BELOW 12,000 FEET WITH NO
SIGNIFICANT WEATHER AND/OR OBSTRUCTIONS TO VISIBILITY.

* THESE STATIONS ARE NOT UNDER NWS QUALITY CONTROL. THEY ALSO MAY NOT
  REPORT WEATHER SUCH AS PRECIPITATION OR FOG.

ILZ005-006-012>014-019>023-180900-
NORTHEAST ILLINOIS

CITY           SKY/WX    TMP DP  RH WIND       PRES   REMARKS
OHARE          PTCLDY    70  61  73 W12       29.77R
MIDWAY         MOCLDY    71  64  78 W10       29.78R
AURORA         CLEAR     65  64  97 W8        29.81R
LANSING*       CLEAR     69  62  77 W9        29.80R
JOLIET*        CLEAR     69  65  90 W7        29.81S
WAUKEGAN       PTCLDY    67  63  87 VRB5      29.75R
DUPAGE AIRPORT PTCLDY    68  65  90 W10       29.79R
WHEELING       MOCLDY    68  65  90 W9        29.79R
MORRIS*        CLEAR     66  64  91 W8        29.80S
LEWIS AIRPORT* CLEAR     66  62  86 W10       29.80S
NORTHERLY ISL    N/A     72  63  73 W8          N/A
$$

WIZ051-052-058>065-066-070>072-180900-
SOUTHEAST WISCONSIN

CITY           SKY/WX    TMP DP  RH WIND       PRES   REMARKS
MILWAUKEE      CLOUDY    69  61  75 W13       29.73S
KENOSHA*       PTCLDY    66  61  84 W10       29.75S
RACINE*        CLOUDY    68  62  81 W7        29.76R
WAUKESHA       CLOUDY    63  59  88 W13       29.76R
WEST BEND      CLOUDY    64  61  88 W12G17    29.72S
$$

INZ001>003-010>013-019-020-180900-
NORTHWEST INDIANA

CITY           SKY/WX    TMP DP  RH WIND       PRES   REMARKS
GARY*          CLEAR     72  64  75 W7        29.79S
MICHIGAN CITY* NOT AVBL
RENSSELAER*    NOT AVBL
VALPARAISO     CLEAR     68  65  90 SW6       29.79S
$$

LMZ740>746-180900-
SOUTHERN LAKE MICHIGAN

STATION/POSITION TIME  SKY/WX   TEMP WIND        PRES    VSBY
                                AIR  DIR/SP/G
                 (UTC)          (F)  (DEG/KT/KT) (MB)    (MI)
HARRISON CRIB    0740            72  290/ 11/ 12   N/A
BURNHAM HARBOR   NOT AVBL
CALUMET HARBOR   0748            71  250/  4/  8 1008.0R
BURNS HARBOR     0740            73  260/ 16/ 18 1008.8R
MICHIGAN CITY    0740            73  250/ 20/ 22   N/A
$$

ABBREVIATIONS USED IN REMARKS
   TC - TEMPERATURE IN CELSIUS
  WCI - WIND CHILL INDEX
   HX - HEAT INDEX
  VSB - VISIBILITY
$$




USA.gov is the U.S. government's official web portal to all federal, state and local government web resources and services.